Overview Statistics Trail Chart Weather Telemetry Raw packets
 

This is the latest recevied weather packets stored in our database for station/object KBTL-WX. If no packets are shown the sender has not sent any weather packets the latest 10 day(s).

<< 3 4 5 6 7 8 9 >>
Time Temp. Humidity Pressure Rain* Wind** Luminosity Snow
1777841113 13.89° C 44% 979.2 hPa 0 mm - - -
1777840232 13.89° C 46% 979 hPa 0 mm - - -
1777839313 14.44° C 46% 978.9 hPa 0 mm - - -
1777838438 15° C 45% 978.9 hPa 0 mm - - -
1777837527 15° C 41% 979.1 hPa 0 mm - - -
1777836633 15.56° C 41% 979.1 hPa 0 mm - - -
1777835714 15.56° C 41% 979.1 hPa 0 mm - - -
1777834838 15.56° C 41% 979.1 hPa 0 mm - - -
1777833914 15.56° C 42% 979.9 hPa 0 mm - - -
1777833322 15° C 39% 979.9 hPa 0 mm - - -
1777832114 15.56° C 39% 980.2 hPa 0 mm - - -
1777831235 15.56° C 39% 980.2 hPa 0 mm - - -
1777830312 15° C 42% 980.8 hPa 0 mm - - -
1777829429 15° C 39% 980.3 hPa 0 mm - - -
1777827635 15° C 39% 980.3 hPa 0 mm - - -
1777826713 14.44° C 42% 980.8 hPa 0 mm - - -
1777825828 14.44° C 43% 980 hPa 0 mm - - -
1777824913 13.89° C 43% 980 hPa 0 mm - - -
1777824041 13.89° C 43% 980 hPa 0 mm - - -
1777823113 13.33° C 48% 980.9 hPa 0 mm - - -
1777822228 13.33° C 49% 980.5 hPa 0 mm - - -
1777821313 12.78° C 49% 980.5 hPa 0 mm - - -
1777820439 12.78° C 49% 980.5 hPa 0 mm - - -
1777819514 12.22° C 51% 980.4 hPa 0 mm - - -
1777818634 11.67° C 50% 980.7 hPa 0 mm - - -

* Rain latest hour (hover to see other rain measurements)
** Current wind speed in m/s (hover to see current wind gust speed)